Location: Vinland
(47.7731°N, 122.6974°W)
Time: 10:13:32
(UTC+00:00)

deb Explorer IX - Visible Passes

Search period start: 29 March 2023 00:00
Search period end: 08 April 2023 00:00
Orbit: 536 x 1029 km, 38.8° (Epoch: 28 March)

Date Brightness Start Highest point End Pass type
(mag) Time Alt. Az. Time Alt. Az. Time Alt. Az.
29 Mar ? 13:18:44 10° S 13:20:36 12° SSE 13:22:25 10° SE visible
30 Mar ? 12:43:48 10° S 12:45:27 12° SSE 12:47:02 10° SE visible
31 Mar ? 12:08:53 10° S 12:10:13 11° SSE 12:11:32 10° SE visible
01 Apr ? 11:34:27 10° SSE 11:34:56 10° SSE 11:35:50 10° SE visible
01 Apr ? 13:16:26 10° SW 13:20:01 22° S 13:23:21 10° ESE visible
02 Apr ? 12:41:11 11° SW 12:44:41 21° SSE 12:48:05 10° ESE visible
03 Apr ? 12:07:23 17° SSW 12:09:17 21° SSE 12:12:46 10° ESE visible
04 Apr ? 11:33:30 21° S 11:33:50 21° SSE 11:37:23 10° ESE visible
05 Apr ? 10:59:33 19° SE 10:59:33 19° SE 11:01:56 10° ESE visible
05 Apr ? 12:40:00 13° SW 12:43:35 28° S 12:47:29 10° ESE visible
06 Apr ? 10:25:34 13° ESE 10:25:34 13° ESE 10:26:25 10° ESE visible
06 Apr ? 12:05:58 22° SW 12:08:01 29° S 12:12:05 10° ESE visible
07 Apr ? 11:31:55 29° S 11:32:23 29° S 11:36:37 10° ESE visible
